Weather History for Ypsilanti, MI

Change the Weather History Date:

Friday, January 25, 2013

  Actual Average Record
Temperature  
Mean Temperature 18 °F -  
Max Temperature 21 °F 33 °F 69 °F (1950)
Min Temperature 16 °F 19 °F -11 °F (2004)
Degree Days  
Heating Degree Days 46    
Moisture  
Dew Point 13 °F    
Average Humidity 75    
Maximum Humidity 86    
Minimum Humidity 62    
Precipitation  
Precipitation 0.00 in - - ()
Sea Level Pressure  
Sea Level Pressure 30.15 in    
Wind  
Wind Speed 5 mph (SSE)    
Max Wind Speed 10 mph    
Max Gust Speed -    
Visibility 3 miles    
Events Snow    
Averages and records for this station are not official NWS values.
T = Trace of Precipitation, MM = Missing Value Source: NWS Daily Summary

Daily Weather History Graph

Daily Weather History Graph

Search for Another Location

Airport:

Trip Planner

Search our weather history database for the weather conditions in past years. The results will help you decide how hot, cold, wet, or windy it might be!

Date:

Astronomy

Jan. 25, 2013 Rise Set
Actual Time 7:53 AM EST 5:39 PM EST
Civil Twilight 7:23 AM EST 6:10 PM EST
Nautical Twilight 6:49 AM EST 6:44 PM EST
Astronomical Twilight 6:16 AM EST 7:17 PM EST
Moon 4:36 PM EST 6:32 AM EST
Length of Visible Light 10h 46m
Length of Day
9h 46m
Waxing Gibbous, 98% of the Moon is Illuminated
Jan 25
Waxing Gibbous
Jan 26
Full
Feb 3
Last Quarter
Feb 10
New
Feb 17
First Quarter

Hourly Weather History & Observations

Time (EST) Temp. Windchill Dew Point Humidity Pressure Visibility Wind Dir Wind Speed Gust Speed Precip Events Conditions
12:53 AM 16.0 °F 10.4 °F 6.1 °F 65% 30.50 in 10.0 mi ESE 3.5 mph - N/A   Mostly Cloudy
1:53 AM 16.0 °F 8.8 °F 5.0 °F 62% 30.48 in 10.0 mi ESE 4.6 mph - N/A   Mostly Cloudy
2:53 AM 16.0 °F 8.8 °F 6.1 °F 65% 30.46 in 10.0 mi SE 4.6 mph - N/A   Overcast
3:53 AM 17.1 °F 10.0 °F 6.1 °F 62% 30.42 in 10.0 mi SE 4.6 mph - N/A   Overcast
4:53 AM 17.1 °F 10.0 °F 6.1 °F 62% 30.38 in 10.0 mi East 4.6 mph - N/A   Overcast
5:53 AM 17.1 °F 11.7 °F 8.1 °F 68% 30.33 in 10.0 mi East 3.5 mph - N/A   Overcast
6:53 AM 18.0 °F 9.8 °F 8.1 °F 65% 30.30 in 10.0 mi SE 5.8 mph - N/A   Overcast
7:17 AM 19.4 °F 8.6 °F 8.6 °F 63% 30.26 in 3.0 mi SSE 9.2 mph - 0.00 in Snow Light Snow
7:33 AM 17.6 °F 9.3 °F 10.4 °F 73% 30.25 in 2.0 mi SSE 5.8 mph - 0.00 in Snow Light Snow
7:41 AM 17.6 °F 8.2 °F 10.4 °F 73% 30.25 in 1.8 mi SSE 6.9 mph - 0.00 in Snow Light Snow
7:53 AM 18.0 °F 9.8 °F 10.9 °F 74% 30.27 in 2.5 mi SSE 5.8 mph - 0.00 in Snow Light Snow
8:01 AM 17.6 °F 9.3 °F 10.4 °F 73% 30.23 in 3.0 mi SE 5.8 mph - 0.00 in Snow Light Snow
8:06 AM 17.6 °F 9.3 °F 10.4 °F 73% 30.23 in 1.8 mi SE 5.8 mph - 0.00 in Snow Light Snow
8:18 AM 17.6 °F 9.3 °F 12.2 °F 79% 30.23 in 0.5 mi SE 5.8 mph - 0.00 in Snow Snow
8:33 AM 17.6 °F 9.3 °F 12.2 °F 79% 30.21 in 0.5 mi SE 5.8 mph - 0.00 in Snow Snow
8:53 AM 19.0 °F 10.0 °F 12.9 °F 77% 30.25 in 0.5 mi SE 6.9 mph - 0.00 in Snow Snow
9:09 AM 19.4 °F 11.5 °F 14.0 °F 80% 30.20 in 0.8 mi SE 5.8 mph - 0.00 in Snow Light Snow
9:20 AM 19.4 °F 11.5 °F 12.2 °F 74% 30.20 in 1.0 mi SE 5.8 mph - 0.00 in Snow Light Snow
9:31 AM 19.4 °F 10.4 °F 12.2 °F 74% 30.20 in 0.8 mi SE 6.9 mph - 0.00 in Snow Light Snow
9:48 AM 19.4 °F 11.5 °F 12.2 °F 74% 30.19 in 1.5 mi ESE 5.8 mph - 0.00 in Snow Light Snow
9:53 AM 19.0 °F 12.3 °F 12.9 °F 77% 30.22 in 1.8 mi ESE 4.6 mph - 0.00 in Snow Light Snow
10:01 AM 19.4 °F 10.4 °F 12.2 °F 74% 30.18 in 2.0 mi ESE 6.9 mph - 0.00 in Snow Light Snow
10:12 AM 19.4 °F 10.4 °F 12.2 °F 74% 30.18 in 7.0 mi ESE 6.9 mph - 0.00 in   Overcast
10:35 AM 19.4 °F 9.5 °F 12.2 °F 74% 30.17 in 1.8 mi ESE 8.1 mph - 0.00 in Snow Light Snow
10:53 AM 19.9 °F 11.1 °F 12.9 °F 74% 30.20 in 1.2 mi ESE 6.9 mph - 0.00 in Snow Light Snow
11:03 AM 19.4 °F 10.4 °F 12.2 °F 74% 30.16 in 1.0 mi ESE 6.9 mph - 0.00 in Snow Light Snow
2:25 PM 21.2 °F 12.6 °F 14.0 °F 74% 30.04 in 3.0 mi SSE 6.9 mph - 0.00 in Snow Light Snow
2:53 PM 21.9 °F 11.0 °F 12.9 °F 68% 30.06 in 4.0 mi South 10.4 mph - 0.00 in Snow Light Snow
3:22 PM 21.2 °F 12.6 °F 14.0 °F 74% 30.02 in 2.0 mi SSE 6.9 mph - 0.00 in Snow Light Snow
3:46 PM 21.2 °F 12.6 °F 14.0 °F 74% 30.02 in 1.5 mi South 6.9 mph - 0.00 in Snow Light Snow
3:53 PM 21.0 °F 12.4 °F 14.0 °F 74% 30.05 in 2.0 mi South 6.9 mph - 0.00 in Snow Light Snow
4:00 PM 21.2 °F 12.6 °F 14.0 °F 74% 30.02 in 1.5 mi South 6.9 mph - 0.00 in Snow Light Snow
4:53 PM 21.0 °F 14.6 °F 15.1 °F 78% 30.04 in 1.5 mi SSE 4.6 mph - 0.00 in Snow Light Snow
5:41 PM 21.2 °F 12.6 °F 15.8 °F 80% 30.01 in 2.5 mi South 6.9 mph - 0.00 in Snow Light Snow
5:49 PM 21.2 °F 13.6 °F 14.0 °F 74% 30.01 in 3.0 mi South 5.8 mph - 0.00 in Snow Light Snow
5:53 PM 21.0 °F 13.4 °F 15.1 °F 78% 30.04 in 3.0 mi South 5.8 mph - 0.00 in Snow Light Snow
6:41 PM 21.2 °F 14.9 °F 15.8 °F 80% 30.03 in 2.5 mi SSW 4.6 mph - 0.00 in Snow Light Snow
6:53 PM 21.0 °F 13.4 °F 15.1 °F 78% 30.05 in 1.5 mi South 5.8 mph - 0.00 in Snow Light Snow
7:12 PM 21.2 °F 14.9 °F 15.8 °F 80% 30.03 in 1.0 mi South 4.6 mph - 0.00 in Snow Light Snow
7:32 PM 21.2 °F 14.9 °F 15.8 °F 80% 30.03 in 1.5 mi South 4.6 mph - 0.00 in Snow Light Snow
7:41 PM 19.4 °F 14.3 °F 15.8 °F 86% 30.03 in 2.5 mi South 3.5 mph - 0.00 in Snow Light Snow
7:53 PM 19.9 °F 14.9 °F 15.1 °F 81% 30.06 in 3.0 mi South 3.5 mph - 0.00 in Snow Light Snow
8:46 PM 19.4 °F 12.8 °F 15.8 °F 86% 30.03 in 2.5 mi SSE 4.6 mph - 0.00 in Snow Light Snow
8:53 PM 19.9 °F 14.9 °F 15.1 °F 81% 30.05 in 3.0 mi SSE 3.5 mph - 0.00 in Snow Light Snow
9:53 PM 19.9 °F 12.1 °F 15.1 °F 81% 30.06 in 4.0 mi South 5.8 mph - 0.00 in Snow Light Snow
10:53 PM 19.9 °F 13.4 °F 15.1 °F 81% 30.05 in 2.5 mi South 4.6 mph - 0.00 in Snow Light Snow
11:16 PM 19.4 °F 12.8 °F 15.8 °F 86% 30.03 in 3.0 mi South 4.6 mph - 0.00 in Snow Light Snow
11:32 PM 19.4 °F 12.8 °F 15.8 °F 86% 30.03 in 2.5 mi South 4.6 mph - 0.00 in Snow Light Snow
11:42 PM 21.2 °F 14.9 °F 15.8 °F 80% 30.04 in 3.0 mi South 4.6 mph - 0.00 in Snow Light Snow
11:49 PM 21.2 °F 14.9 °F 15.8 °F 80% 30.04 in 2.5 mi South 4.6 mph - 0.00 in Snow Light Snow
11:53 PM 21.0 °F 16.2 °F 16.0 °F 81% 30.07 in 2.5 mi South 3.5 mph - 0.00 in Snow Light Snow